Weather History for Ketchikan, AK

Change the Weather History Date:

Wednesday, January 1, 2014

  Actual Average Record
Temperature  
Mean Temperature 42 °F -  
Max Temperature 46 °F 38 °F 54 °F (1962)
Min Temperature 37 °F 27 °F 2 °F (1950)
Degree Days  
Heating Degree Days 22    
Moisture  
Dew Point 41 °F    
Average Humidity 93    
Maximum Humidity 96    
Minimum Humidity 85    
Precipitation  
Precipitation 2.83 in - - ()
Sea Level Pressure  
Sea Level Pressure 29.94 in    
Wind  
Wind Speed 19 mph (SE)    
Max Wind Speed 31 mph    
Max Gust Speed 39 mph    
Visibility 6 miles    
Events Rain    
Averages and records for this station are not official NWS values.
T = Trace of Precipitation, MM = Missing Value Source: NWS Daily Summary

Daily Weather History Graph

Daily Weather History Graph

Search for Another Location

Airport:

Trip Planner

Search our weather history database for the weather conditions in past years. The results will help you decide how hot, cold, wet, or windy it might be!

Date:

Astronomy

Jan. 01, 2014 Rise Set
Actual Time 8:13 AM AKST 3:27 PM AKST
Civil Twilight 7:28 AM AKST 4:13 PM AKST
Nautical Twilight 6:40 AM AKST 5:00 PM AKST
Astronomical Twilight 5:55 AM AKST 5:45 PM AKST
Moon 7:56 AM AKST (1/1) 4:36 PM AKST (1/1)
Length of Visible Light 8h 44m
Length of Day
7h 13m
New Moon, 0% of the Moon is Illuminated
Jan 1
New Moon
Jan 7
First Quarter
Jan 15
Full
Jan 23
Last Quarter
Jan 30
New

Hourly Weather History & Observations

Time (AKST) Temp. Windchill Dew Point Humidity Pressure Visibility Wind Dir Wind Speed Gust Speed Precip Events Conditions
12:01 AM 44.6 °F 36.6 °F 42.8 °F 93% 30.05 in 6.0 mi SE 19.6 mph 26.5 mph 0.01 in Rain Rain
12:53 AM 44.1 °F 35.9 °F 43.0 °F 96% 30.05 in 6.0 mi SE 19.6 mph 25.3 mph 0.11 in Rain Rain
1:40 AM 44.6 °F 35.9 °F 42.8 °F 93% 30.02 in 5.0 mi SE 23.0 mph 28.8 mph 0.16 in Rain Rain
1:53 AM 44.1 °F 35.4 °F 42.1 °F 93% 30.02 in 5.0 mi SE 21.9 mph - 0.20 in Rain Rain
3:53 AM 43.0 °F 33.3 °F 41.0 °F 93% 29.98 in 3.0 mi SE 25.3 mph 34.5 mph 0.19 in Rain Rain
4:45 AM 42.8 °F 32.1 °F 41.0 °F 93% 29.95 in 2.5 mi SE 31.1 mph 39.1 mph 0.19 in Rain Rain
4:53 AM 43.0 °F 33.1 °F 41.0 °F 93% 29.96 in 3.0 mi SE 26.5 mph 36.8 mph 0.21 in Rain Rain
5:53 AM 43.0 °F 32.7 °F 41.0 °F 93% 29.92 in 5.0 mi SE 28.8 mph 38.0 mph 0.31 in Rain Rain
6:05 AM 42.8 °F 34.3 °F 41.0 °F 93% 29.91 in 5.0 mi SSE 19.6 mph 34.5 mph N/A Rain Heavy Rain
6:53 AM 44.6 °F 35.9 °F 42.8 °F 93% 29.89 in 5.0 mi SE 23.0 mph 32.2 mph N/A Rain Heavy Rain
7:53 AM 44.6 °F 35.5 °F 42.8 °F 93% 29.87 in 3.0 mi SE 25.3 mph 33.4 mph N/A Rain Heavy Rain
8:53 AM 45.0 °F 36.0 °F 42.1 °F 90% 29.87 in 4.0 mi SE 25.3 mph 34.5 mph 0.42 in Rain Heavy Rain
9:53 AM 45.0 °F 37.6 °F 43.0 °F 93% 29.87 in 4.0 mi SE 17.3 mph 31.1 mph 0.35 in Rain Rain
10:53 AM 46.0 °F 37.4 °F 44.1 °F 93% 29.87 in 3.0 mi SE 25.3 mph 39.1 mph 0.22 in Rain Rain
11:53 AM 46.0 °F 38.0 °F 44.1 °F 93% 29.85 in 3.0 mi SSE 21.9 mph 38.0 mph 0.30 in Rain Rain
12:53 PM 46.0 °F 37.2 °F 44.1 °F 93% 29.86 in 3.0 mi SE 26.5 mph 38.0 mph 0.28 in Rain Rain
1:53 PM 46.0 °F 37.6 °F 44.1 °F 93% 29.87 in 3.0 mi SE 24.2 mph 35.7 mph 0.16 in Rain Rain
2:00 PM 46.4 °F 38.5 °F 44.6 °F 93% 29.86 in 3.0 mi SE 21.9 mph 33.4 mph 0.01 in Rain Light Rain
2:08 PM 46.4 °F 39.2 °F 44.6 °F 93% 29.86 in 3.0 mi SE 18.4 mph 32.2 mph 0.02 in Rain Light Rain
2:53 PM 46.0 °F 41.0 °F 45.0 °F 96% 29.87 in 4.0 mi SE 10.4 mph - 0.03 in Rain Light Rain
3:53 PM 44.1 °F 38.6 °F 39.9 °F 85% 29.93 in 10.0 mi NW 10.4 mph 20.7 mph 0.05 in Rain Light Rain
4:53 PM 43.0 °F 37.7 °F 39.0 °F 86% 29.95 in 10.0 mi WNW 9.2 mph - 0.00 in   Mostly Cloudy
5:53 PM 43.0 °F 40.3 °F 39.0 °F 86% 29.96 in 10.0 mi WNW 4.6 mph - N/A   Partly Cloudy
6:53 PM 42.1 °F 38.4 °F 39.0 °F 89% 29.99 in 10.0 mi NW 5.8 mph - N/A   Mostly Cloudy
7:53 PM 41.0 °F 39.0 °F 39.0 °F 93% 30.00 in 10.0 mi NW 3.5 mph - N/A   Clear
8:53 PM 39.9 °F 37.8 °F 37.9 °F 93% 30.00 in 10.0 mi West 3.5 mph - N/A   Mostly Cloudy
9:53 PM 39.0 °F - 37.9 °F 96% 29.99 in 10.0 mi Calm Calm - N/A   Clear
10:53 PM 39.0 °F - 37.9 °F 96% 29.99 in 10.0 mi Calm Calm - N/A   Clear
11:53 PM 37.0 °F - 36.0 °F 96% 29.98 in 10.0 mi Calm Calm - N/A   Clear